Location: Palomar Mountain Lodge
(33.3110°N, 116.8495°W)
Time: 00:05:32
(UTC-07:00)

Helios 1B rocket - Pass Details

Date: 14 June 2018
Orbit: 576 x 585 km, 98.2° (Epoch: 22 June)

Event Time Altitude Azimuth Distance (km) Brightness Sun altitude
Rises 21:53:58 0° 22° (NNE) 2,793 6.3 -19.9°
Reaches altitude 10° 21:56:16 10° 31° (NNE) 1,889 5.2 -20.2°
Enters shadow 21:59:19 33° 74° (ENE) 972 3.3 -20.6°
